Regional Weather Roundup
Issued by NWS Charleston, SC

Home | Current Version | Previous Version | Text Only | Print | Product List | Glossary On
Versions: 1 2 3 4 5 6 7 8 9 10 11 12 13 14 15 16 17 18 19 20 21 22 23 24 25 26 27 28 29 30 31 32 33 34 35 36 37 38 39 40 41 42 43 44 45 46 47 48 49 50
000
ASUS42 KCHS 261412
RWRCHS

REGIONAL WEATHER ROUNDUP
NATIONAL WEATHER SERVICE CHARLESTON SC
1000 AM EDT TUE MAY 26 2015

NOTE: "FAIR" INDICATES FEW OR NO CLOUDS BELOW 12,000 FEET WITH NO
SIGNIFICANT WEATHER AND/OR OBSTRUCTIONS TO VISIBILITY.

NOT ALL STATIONS ARE QUALITY CONTROLLED BY THE NATIONAL
WEATHER SERVICE. USE DATA WITH CAUTION...ESPECIALLY
DEWPOINT OBSERVATIONS.

SCZ027-030-031-034>040-042>050-261500-
...SOUTHEAST SOUTH CAROLINA...

CITY           SKY/WX    TMP DP  RH WIND       PRES   REMARKS
N CHARLESTON   PTSUNNY   81  69  67 S10       30.28S
WATERFRONT PAR   N/A     79  72  79 S7        30.25S
MOUNT PLEASANT LGT RAIN  82  72  69 S10       30.28S
JOHNS ISLAND   PTSUNNY   81  72  74 S9        30.28S
PINOPOLIS        N/A     82  73  74 VRB3      30.21F
MONCKS CORNER  PTSUNNY   82  72  69 SW6       30.28S
SUMMERVILLE    FAIR      81  72  74 S3        30.29S
BEAUFORT MCAS  CLOUDY    83  72  69 SE7       30.27S
BEAUFORT ARPT  FAIR      81  73  78 S5        30.27S
HILTON HEAD IS MOSUNNY   81  73  78 S7        30.28S
WALTERBORO     CLOUDY    79  72  78 S7        30.29S
ALLENDALE      PTSUNNY   79  72  78 SE6       30.27S

...SOUTHERN MIDLANDS AND PEE DEE...

CITY           SKY/WX    TMP DP  RH WIND       PRES   REMARKS
GEORGETOWN     NOT AVBL
KINGSTREE      NOT AVBL
ORANGEBURG     MOSUNNY   77  69  76 CALM      30.29S
BARNWELL       CLOUDY    79  72  78 E3        30.28F
AIKEN          PTSUNNY   75  64  69 SE3       30.32S
MANNING        FAIR      77  63  61 CALM      30.29S
COLUMBIA       MOSUNNY   76  67  73 W3        30.28F
SUMTER         PTSUNNY   74  68  83 VRB1      30.28S
FLORENCE       CLOUDY    76  69  79 SE3       30.30S
MYRTLE BEACH   PTSUNNY   81  72  74 S7        30.31S
N MYRTLE BEACH CLOUDY    79  72  79 VRB7      30.30S

$$

GAZ063-065-086>088-099>101-113>116-118-119-134>141-150-261500-
...SOUTHEAST GEORGIA...

CITY           SKY/WX    TMP DP  RH WIND       PRES   REMARKS
SAVANNAH ARPT  PTSUNNY   81  68  64 S10G16    30.26S
HUNTER AAF     MOSUNNY   82  72  69 S10       30.24S
FORT STEWART   PTSUNNY   80  72  75 VRB5      30.24S
STATESBORO     CLOUDY    78  78 100 S6        30.27S
SYLVANIA       CLOUDY    80  75  85 S3        30.27F
CLAXTON        PTSUNNY   77  73  88 E3        30.26F

...CSRA...CENTRAL AND FAR SOUTHEAST GEORGIA...

CITY           SKY/WX    TMP DP  RH WIND       PRES   REMARKS
THOMSON        PTSUNNY   79  73  81 S6        30.31S
AUGUSTA-BUSH   CLOUDY    75  70  84 SE6       30.27S
AUGUSTA-DANIEL CLOUDY    74  69  85 SE7       30.28F
SWAINSBORO     PTSUNNY   81  73  78 S8        30.27S
VIDALIA        PTSUNNY   79  70  73 S9        30.27R
EASTMAN        CLOUDY    79  78  96 S8        30.27S
HAZLEHURST     PTSUNNY   81  73  76 SE6       30.24F
ALMA           PTSUNNY   79  71  76 SE8       30.25S
WAYCROSS       PTSUNNY   82  74  77 S9        30.25S
JESUP          PTSUNNY   86  75  70 S3        30.26S HX  95
BAXLEY         CLOUDY    81  72  74 S7        30.25S
BRUNSWICK      PTSUNNY   82  70  65 SE12      30.26S
SAINT SIMONS   NOT AVBL

$$

SCZ027-028-034-036>038-045-046-048>050-GAZ119-141-261500-
...LAKE AND SUPPLEMENTAL COASTAL OBSERVATIONS...

STATION/POSITION TIME  TEMP    WIND        PRES    WAVE   SWELL
                       AIR SEA DIR/SP/G            HT/PER HT/PER/DIR
                 (UTC) (F)     (DEG/KT/KT) (MB)    (FT/S) (FT/S/D)
UPR LAKE MARION  NOT AVBL
WINYAH BAY       NOT AVBL
LAKE MURRAY      1300   71     170/  4/  7 1025.4R
ACE BASIN NERRS  NOT AVBL
FORT PULASKI     1300   79 78  180/  8/ 11 1025.3R
SAPELO ISLAND    1300   82     150/  6     1024.0S

$$

ANZ835-935-AMZ111-154-330-350-352-354-370-450-454-472-261500-
...C-MAN AND BUOY OBSERVATIONS...

STATION/POSITION TIME  TEMP    WIND        PRES    WAVE   SWELL
                       AIR SEA DIR/SP/G            HT/PER HT/PER/DIR
                 (UTC) (F)     (DEG/KT/KT) (MB)    (FT/S) (FT/S/D)
BUOY 41004       1350   78 76   CALM  /  2 1025.2R   3/ 7   2/ 7
BUOY 41008       1350   77 77  110/  4/  6 1025.0S   3/ 7   3/100/ 7
FOLLY BEACH CMAN 1400   78     140/  2/  3 1025.5S
CAPERS NEARSHORE 1308   77      70/  2/  4 1025.7R
FRIPP NEARSHORE  1300   79     160/  6/  8 1024.6R


STATION/POSITION TIME  TEMP    WIND        PRES    WAVE   SWELL
                       AIR SEA DIR/SP/G            HT/PER HT/PER/DIR
                 (UTC) (F)     (DEG/KT/KT) (MB)    (FT/S) (FT/S/D)
5E ST. MARYS GA  1321      79                N/A     3/ 5
FRYING PAN BUOY  1350   78 74  150/ 12/ 12 1026.7R   3/ 6   2/120/ 6
BUOY 41025       1350   75 77  170/ 14/ 16 1027.5R   3/ 5   2/ 90/ 8
CAPE LOOKOUT NC  1400   75     160/  8/ 10 1026.9F
BUOY 41002       1350   74 74  120/ 10/ 12 1027.6F   4/ 6   3/100/ 6
BUOY 41010       1320   79 81  100/ 14/ 16 1024.6R
ST AUGUSTINE FL  1400   78 79  130/  9/ 10 1024.6S


$$


USA.gov is the U.S. government's official web portal to all federal, state and local government web resources and services.